Thermal, CA

3:14 AM PDT on August 17, 2017 (GMT -0700)
Desert Resorts Regional

Weather History for KTRM - February, 2012

Change the Weather History Date:

Thursday, February 16, 2012

  Actual Average Record
Temperature  
Mean Temperature 58 °F 58 °F  
Max Temperature 69 °F 75 °F 92 °F (2016)
Min Temperature 47 °F 41 °F 25 °F (1990)
Degree Days  
Heating Degree Days 7 7  
Month to date heating degree days 122 133  
Since 1 July heating degree days 1046 993  
Cooling Degree Days 0 0  
Month to date cooling degree days 0 0  
Year to date cooling degree days 0 2  
Growing Degree Days 7 (Base 50)    
Moisture  
Dew Point 37 °F    
Average Humidity 64    
Maximum Humidity 100    
Minimum Humidity 27    
Precipitation  
Precipitation 0.03 in 0.03 in 0.62 in (1980)
Month to date precipitation 0.27 0.35  
Year to date precipitation 0.27 1.02  
Since 1 July precipitation 1.26  
Snow  
Snow 0.00 in - - ()
Month to date snowfall 0.0  
Year to date snowfall 0.0  
Snow Depth 0.00 in    
Sea Level Pressure  
Sea Level Pressure 30.03 in    
Wind  
Wind Speed 10 mph (NW)    
Max Wind Speed 22 mph    
Max Gust Speed 29 mph    
Visibility 10 miles    
Events Rain    
T = Trace of Precipitation, MM = Missing Value Source: NWS Daily Summary

Daily Weather History Graph

Daily Weather History Graph

Search for Another Location

Airport or City:

Trip Planner

Search our weather history database for the weather conditions in past years. The results will help you decide how hot, cold, wet, or windy it might be!

Date:

Astronomy

Feb. 16, 2012 Rise Set
Actual Time 6:28 AM PST 5:29 PM PST
Civil Twilight 6:02 AM PST 5:55 PM PST
Nautical Twilight 5:33 AM PST 6:24 PM PST
Astronomical Twilight 5:04 AM PST 6:53 PM PST
Moon 2:18 AM PST (2/16) 12:35 PM PST (2/16)
Length of Visible Light 11h 52m
Length of Day
11h 01m
Waning Crescent, 27% of the Moon is Illuminated
Feb 16
Waning Crescent
Feb 21
New
Feb 29
First Quarter
Mar 8
Full
Mar 14
Last Quarter

Hourly Weather History & Observations

Time (PST) Temp. Dew Point Humidity Pressure Visibility Wind Dir Wind Speed Gust Speed Precip Events Conditions
1:52 AM 48.0 °F 48.0 °F 100% 29.99 in 10.0 mi East 3.5 mph - 0.01 in Rain Light Rain
2:52 AM 48.0 °F 48.0 °F 100% 29.99 in 10.0 mi SE 3.5 mph - 0.00 in   Overcast
3:52 AM 48.0 °F 48.0 °F 100% 30.01 in 10.0 mi Calm Calm - N/A   Overcast
4:52 AM 48.0 °F 46.0 °F 93% 30.02 in 10.0 mi Calm Calm - N/A   Overcast
5:52 AM 46.9 °F 46.0 °F 97% 30.03 in 10.0 mi Calm Calm - N/A   Overcast
6:52 AM 53.1 °F 39.0 °F 59% 30.05 in 10.0 mi North 9.2 mph - N/A   Mostly Cloudy
7:52 AM 55.0 °F 39.0 °F 55% 30.06 in 10.0 mi NNW 13.8 mph - 0.00 in Rain Light Rain
8:52 AM 59.0 °F 37.9 °F 46% 30.07 in 10.0 mi NNW 11.5 mph 21.9 mph 0.00 in   Partly Cloudy
9:52 AM 59.0 °F 37.9 °F 46% 30.08 in 10.0 mi WNW 12.7 mph 19.6 mph N/A   Overcast
10:52 AM 63.0 °F 37.9 °F 40% 30.06 in 10.0 mi NNW 18.4 mph 25.3 mph N/A   Clear
11:52 AM 63.0 °F 37.9 °F 40% 30.04 in 10.0 mi NW 17.3 mph - N/A   Partly Cloudy
12:52 PM 66.0 °F 37.9 °F 36% 30.01 in 10.0 mi WNW 17.3 mph 25.3 mph N/A   Clear
1:52 PM 68.0 °F 36.0 °F 31% 29.99 in 10.0 mi NNW 17.3 mph 21.9 mph N/A   Clear
2:52 PM 68.0 °F 34.0 °F 28% 29.99 in 10.0 mi WNW 11.5 mph 23.0 mph N/A   Mostly Cloudy
3:52 PM 66.9 °F 36.0 °F 32% 29.98 in 10.0 mi West 9.2 mph - N/A   Mostly Cloudy
4:52 PM 68.0 °F 30.0 °F 24% 30.00 in 10.0 mi NNW 16.1 mph 24.2 mph N/A   Mostly Cloudy
5:52 PM 64.9 °F 30.0 °F 27% 30.01 in 10.0 mi NNW 10.4 mph - N/A   Clear
6:52 PM 63.0 °F 30.9 °F 30% 30.04 in 10.0 mi NW 8.1 mph - N/A   Clear
7:52 PM 60.1 °F 32.0 °F 35% 30.05 in 10.0 mi NNW 6.9 mph - N/A   Clear
8:52 PM 61.0 °F 28.9 °F 30% 30.05 in 10.0 mi NNW 11.5 mph - N/A   Clear
9:52 PM 61.0 °F 28.9 °F 30% 30.06 in 10.0 mi NW 11.5 mph - N/A   Clear
10:52 PM 61.0 °F 28.0 °F 29% 30.06 in 10.0 mi NW 11.5 mph - N/A   Clear
11:52 PM 62.1 °F 26.1 °F 25% 30.06 in 10.0 mi NW 15.0 mph - N/A   Clear